| time (UTC) | temp F | wind direction | speed knots | gust knots | rain 1hr in | rain 24hr in | rain mn in | humidity % | barometer mb |
| 20260502194548 | 75 | 90 | 3.5 | 3.5 | 0.00 | 0.00 | 0.00 | 38 | 1027.4 |
| 20260502192545 | 76 | 120 | 4.3 | 4.3 | 0.00 | 0.00 | 0.00 | 36 | 1027.4 |
| 20260502190541 | 76 | 52 | 4.3 | 5.2 | 0.00 | 0.00 | 0.00 | 35 | 1027.9 |
| 20260502184537 | 77 | 336 | 4.3 | 5.2 | 0.00 | 0.00 | 0.00 | 33 | 1027.9 |
| 20260502182533 | 76 | 264 | 3.5 | 3.5 | 0.00 | 0.00 | 0.00 | 33 | 1028.3 |
| 20260502180528 | 77 | 259 | 3.5 | 4.3 | 0.00 | 0.00 | 0.00 | 30 | 1028.3 |
| 20260502162518 | 70 | 306 | 2.6 | 2.6 | 0.00 | 0.00 | 0.00 | 43 | 1029.9 |
| 20260502160518 | 69 | 246 | 4.3 | 5.2 | 0.00 | 0.00 | 0.00 | 44 | 1030.4 |
| 20260502150438 | 64 | 312 | 0.0 | 0.0 | 0.00 | 0.00 | 0.00 | 60 | 1030.8 |
| 20260502130427 | 52 | 194 | 1.7 | 1.7 | 0.00 | 0.00 | 0.00 | 79 | 1029.9 |
| 20260502122427 | 48 | 198 | 1.7 | 1.7 | 0.00 | 0.00 | 0.00 | 88 | 1029.2 |
| 20260502120427 | 49 | 198 | 1.7 | 1.7 | 0.00 | 0.00 | 0.00 | 89 | 1029.2 |
| 20260502114426 | 49 | 198 | 2.6 | 2.6 | 0.00 | 0.00 | 0.00 | 86 | 1029.2 |
| 20260502112422 | 47 | 198 | 0.0 | 0.0 | 0.00 | 0.00 | 0.00 | 88 | 1028.7 |
| 20260502110417 | 50 | 198 | 0.0 | 0.0 | 0.00 | 0.00 | 0.00 | 86 | 1029.2 |
| 20260502104412 | 50 | 198 | 2.6 | 2.6 | 0.00 | 0.00 | 0.00 | 83 | 1028.7 |
| 20260502102411 | 50 | 198 | 1.7 | 1.7 | 0.00 | 0.00 | 0.00 | 82 | 1028.3 |
| 20260502100410 | 51 | 198 | 0.0 | 0.0 | 0.00 | 0.00 | 0.00 | 86 | 1028.3 |
| 20260502090401 | 52 | 198 | 0.0 | 0.0 | 0.00 | 0.00 | 0.00 | 86 | 1028.3 |
| 20260502070344 | 53 | 312 | 1.7 | 1.7 | 0.00 | 0.00 | 0.00 | 90 | 1029.2 |
| 20260502064342 | 54 | 312 | 1.7 | 1.7 | 0.00 | 0.00 | 0.00 | 93 | 1029.5 |
| 20260502062342 | 54 | 312 | 0.0 | 0.0 | 0.00 | 0.00 | 0.00 | 93 | 1029.5 |
| 20260502060341 | 54 | 312 | 0.0 | 0.0 | 0.00 | 0.00 | 0.00 | 92 | 1029.5 |
| 20260502054339 | 55 | 312 | 2.6 | 2.6 | 0.00 | 0.00 | 0.00 | 92 | 1029.9 |
| 20260502052335 | 55 | 312 | 0.0 | 0.0 | 0.00 | 0.00 | 0.00 | 91 | 1029.9 |
| 20260502050335 | 56 | 312 | 1.7 | 1.7 | 0.00 | 0.00 | 0.00 | 90 | 1030.4 |
| 20260502044333 | 57 | 318 | 1.7 | 1.7 | 0.00 | 0.00 | 0.00 | 87 | 1030.4 |
| 20260502042331 | 58 | 282 | 0.9 | 0.9 | 0.00 | 0.00 | 0.00 | 86 | 1030.4 |
| 20260502040326 | 58 | 210 | 0.0 | 0.0 | 0.00 | 0.00 | 0.00 | 87 | 1030.4 |
| 20260502034326 | 58 | 198 | 1.7 | 1.7 | 0.00 | 0.00 | 0.00 | 86 | 1029.5 |
| 20260502032326 | 59 | 168 | 0.0 | 0.0 | 0.00 | 0.00 | 0.00 | 84 | 1029.5 |
| 20260502030323 | 59 | 168 | 1.7 | 1.7 | 0.00 | 0.00 | 0.00 | 79 | 1028.7 |
| 20260502024319 | 60 | 144 | 1.7 | 1.7 | 0.00 | 0.00 | 0.00 | 77 | 1028.7 |
| 20260502022314 | 60 | 144 | 1.7 | 1.7 | 0.00 | 0.00 | 0.00 | 76 | 1028.7 |
| 20260502020315 | 60 | 126 | 3.5 | 3.5 | 0.00 | 0.00 | 0.00 | 76 | 1028.3 |
| 20260502014314 | 60 | 156 | 1.7 | 1.7 | 0.00 | 0.00 | 0.00 | 76 | 1028.3 |
| 20260502012312 | 61 | 102 | 0.9 | 0.9 | 0.00 | 0.00 | 0.00 | 76 | 1027.4 |
| 20260502010311 | 61 | 162 | 1.7 | 1.7 | 0.00 | 0.00 | 0.00 | 75 | 1027.0 |
| 20260502004310 | 62 | 96 | 4.3 | 5.2 | 0.00 | 0.00 | 0.00 | 74 | 1027.0 |
| 20260502002310 | 64 | 114 | 4.3 | 5.2 | 0.00 | 0.00 | 0.00 | 70 | 1026.5 |
| 20260502000306 | 64 | 96 | 3.5 | 3.5 | 0.00 | 0.00 | 0.00 | 67 | 1026.1 |
| 20260501234302 | 65 | 120 | 3.5 | 3.5 | 0.00 | 0.00 | 0.00 | 67 | 1026.1 |
| 20260501232305 | 66 | 138 | 5.2 | 5.2 | 0.00 | 0.00 | 0.00 | 64 | 1025.7 |
| 20260501230300 | 67 | 132 | 5.2 | 5.2 | 0.00 | 0.00 | 0.00 | 62 | 1025.2 |
| 20260501224300 | 67 | 132 | 6.1 | 6.1 | 0.00 | 0.00 | 0.00 | 62 | 1025.2 |
| 20260501222258 | 68 | 120 | 4.3 | 4.3 | 0.00 | 0.00 | 0.00 | 59 | 1024.8 |
| 20260501220258 | 68 | 138 | 7.0 | 7.0 | 0.00 | 0.00 | 0.00 | 58 | 1024.8 |
| 20260501214258 | 69 | 72 | 4.3 | 5.2 | 0.00 | 0.00 | 0.00 | 54 | 1024.8 |
| 20260501212255 | 70 | 108 | 3.5 | 3.5 | 0.00 | 0.00 | 0.00 | 51 | 1024.8 |
| 20260501210255 | 71 | 96 | 4.3 | 5.2 | 0.00 | 0.00 | 0.00 | 48 | 1024.8 |
| 20260501204254 | 71 | 72 | 6.1 | 6.1 | 0.00 | 0.00 | 0.00 | 46 | 1025.2 |
| 20260501202253 | 72 | 168 | 1.7 | 1.7 | 0.00 | 0.00 | 0.00 | 49 | 1025.2 |